North Bend, OR

9:46 AM PDT on August 23, 2017 (GMT -0700)
North Bend Municipal

Weather History for KOTH - October, 2012

Change the Weather History Date:

Sunday, October 14, 2012

  Actual Average Record
Temperature  
Mean Temperature 62 °F 54 °F  
Max Temperature 66 °F 61 °F 79 °F (1978)
Min Temperature 57 °F 46 °F 29 °F (1930)
Degree Days  
Heating Degree Days 3 11  
Month to date heating degree days 139 147  
Since 1 July heating degree days 738 755  
Cooling Degree Days 0 0  
Month to date cooling degree days 0 0  
Year to date cooling degree days 0 2  
Growing Degree Days 10 (Base 50)    
Moisture  
Dew Point 58 °F    
Average Humidity 91    
Maximum Humidity 100    
Minimum Humidity 78    
Precipitation  
Precipitation 0.11 in 0.14 in 0.94 in (1968)
Month to date precipitation 0.54 1.47  
Year to date precipitation 29.34 40.29  
Sea Level Pressure  
Sea Level Pressure 30.12 in    
Wind  
Wind Speed 8 mph (South)    
Max Wind Speed 13 mph    
Max Gust Speed 27 mph    
Visibility 10 miles    
Events      
T = Trace of Precipitation, MM = Missing Value Source: NWS Daily Summary

Daily Weather History Graph

Daily Weather History Graph

Search for Another Location

Airport or City:

Trip Planner

Search our weather history database for the weather conditions in past years. The results will help you decide how hot, cold, wet, or windy it might be!

Date:

Astronomy

Oct. 14, 2012 Rise Set
Actual Time 7:30 AM PDT 6:34 PM PDT
Civil Twilight 7:01 AM PDT 7:03 PM PDT
Nautical Twilight 6:28 AM PDT 7:36 PM PDT
Astronomical Twilight 5:55 AM PDT 8:09 PM PDT
Moon 6:36 AM PDT (10/14) 5:57 PM PDT (10/14)
Length of Visible Light 12h 01m
Length of Day
11h 04m
Waning Crescent, 1% of the Moon is Illuminated
Oct 14
Waning Crescent
Oct 15
New
Oct 21
First Quarter
Oct 29
Full
Nov 6
Last Quarter

Hourly Weather History & Observations

Time (PDT) Temp. Dew Point Humidity Pressure Visibility Wind Dir Wind Speed Gust Speed Precip Events Conditions
12:35 AM 57.2 °F 57.2 °F 100% 30.20 in 10.0 mi SW 4.6 mph - N/A   Overcast
12:55 AM 57.2 °F 57.2 °F 100% 30.20 in 2.0 mi West 5.8 mph - N/A   Overcast
1:15 AM 57.2 °F 57.2 °F 100% 30.19 in 1.0 mi WSW 3.5 mph - N/A   Overcast
1:35 AM 57.2 °F 57.2 °F 100% 30.19 in 10.0 mi South 3.5 mph - N/A   Overcast
1:55 AM 57.2 °F 57.2 °F 100% 30.18 in 10.0 mi SE 4.6 mph - N/A   Overcast
2:15 AM 57.2 °F 57.2 °F 100% 30.18 in 8.0 mi SE 4.6 mph - N/A   Overcast
2:35 AM 57.2 °F 57.2 °F 100% 30.17 in 10.0 mi SE 5.8 mph - N/A   Overcast
2:55 AM 57.2 °F 57.2 °F 100% 30.18 in 6.0 mi SE 4.6 mph - N/A   Overcast
3:15 AM 57.2 °F 57.2 °F 100% 30.18 in 10.0 mi SSE 3.5 mph - N/A   Overcast
3:35 AM 57.2 °F 57.2 °F 100% 30.17 in 10.0 mi SE 3.5 mph - N/A   Overcast
3:55 AM 59.0 °F 57.2 °F 94% 30.16 in 10.0 mi SSE 4.6 mph - N/A   Overcast
4:15 AM 59.0 °F 57.2 °F 94% 30.16 in 10.0 mi Calm Calm - N/A   Overcast
4:35 AM 57.2 °F 55.4 °F 94% 30.15 in 10.0 mi SE 4.6 mph - N/A   Overcast
4:55 AM 57.2 °F 57.2 °F 100% 30.15 in 9.0 mi SE 3.5 mph - N/A   Overcast
5:15 AM 57.2 °F 57.2 °F 100% 30.15 in 10.0 mi SSE 4.6 mph - N/A   Overcast
5:35 AM 57.2 °F 57.2 °F 100% 30.15 in 10.0 mi SSE 4.6 mph - N/A   Overcast
5:55 AM 59.0 °F 57.2 °F 94% 30.14 in 10.0 mi SSE 6.9 mph - N/A   Overcast
6:15 AM 59.0 °F 57.2 °F 94% 30.14 in 10.0 mi SE 5.8 mph - N/A   Overcast
6:35 AM 59.0 °F 57.2 °F 94% 30.15 in 10.0 mi SE 6.9 mph - N/A   Overcast
6:55 AM 57.2 °F 57.2 °F 100% 30.15 in 10.0 mi SSE 6.9 mph - N/A   Overcast
7:15 AM 57.2 °F 57.2 °F 100% 30.15 in 10.0 mi SE 5.8 mph - N/A   Overcast
7:35 AM 57.2 °F 57.2 °F 100% 30.15 in 10.0 mi SSE 6.9 mph - N/A   Overcast
7:55 AM 57.2 °F 57.2 °F 100% 30.15 in 10.0 mi SE 6.9 mph - N/A   Mostly Cloudy
8:15 AM 59.0 °F 57.2 °F 94% 30.15 in 10.0 mi SSE 8.1 mph - N/A   Mostly Cloudy
8:35 AM 59.0 °F 57.2 °F 94% 30.15 in 10.0 mi SE 8.1 mph - N/A   Mostly Cloudy
8:55 AM 59.0 °F 57.2 °F 94% 30.15 in 10.0 mi SE 6.9 mph - N/A   Mostly Cloudy
9:15 AM 60.8 °F 59.0 °F 94% 30.15 in 10.0 mi SE 5.8 mph - N/A   Mostly Cloudy
9:35 AM 60.8 °F 57.2 °F 88% 30.16 in 10.0 mi SSE 5.8 mph - N/A   Overcast
9:55 AM 62.6 °F 59.0 °F 88% 30.15 in 10.0 mi SSE 6.9 mph - N/A   Overcast
10:15 AM 62.6 °F 59.0 °F 88% 30.15 in 10.0 mi South 6.9 mph - N/A   Overcast
10:35 AM 62.6 °F 59.0 °F 88% 30.15 in 10.0 mi South 6.9 mph - N/A   Overcast
10:55 AM 64.4 °F 59.0 °F 83% 30.15 in 10.0 mi South 6.9 mph - N/A   Overcast
11:15 AM 62.6 °F 59.0 °F 88% 30.16 in 10.0 mi SSW 8.1 mph - N/A   Overcast
11:35 AM 62.6 °F 59.0 °F 88% 30.16 in 10.0 mi SSW 15.0 mph 20.7 mph N/A   Overcast
11:55 AM 62.6 °F 59.0 °F 88% 30.16 in 10.0 mi SSW 10.4 mph 21.9 mph N/A   Overcast
12:15 PM 62.6 °F 59.0 °F 88% 30.17 in 10.0 mi SSW 10.4 mph 23.0 mph N/A   Overcast
12:35 PM 62.6 °F 59.0 °F 88% 30.16 in 10.0 mi SSW 12.7 mph 19.6 mph N/A   Overcast
12:55 PM 62.6 °F 59.0 °F 88% 30.17 in 10.0 mi SSW 12.7 mph 24.2 mph N/A   Overcast
1:15 PM 62.6 °F 59.0 °F 88% 30.15 in 10.0 mi South 16.1 mph 21.9 mph N/A   Overcast
1:35 PM 64.4 °F 59.0 °F 83% 30.14 in 10.0 mi South 12.7 mph - N/A   Overcast
1:55 PM 64.4 °F 59.0 °F 83% 30.13 in 10.0 mi South 8.1 mph - N/A   Overcast
2:15 PM 64.4 °F 59.0 °F 83% 30.13 in 10.0 mi West 4.6 mph - N/A   Overcast
2:35 PM 62.6 °F 57.2 °F 82% 30.14 in 10.0 mi WSW 12.7 mph 19.6 mph N/A   Overcast
2:55 PM 62.6 °F 59.0 °F 88% 30.14 in 10.0 mi SW 12.7 mph 26.5 mph N/A   Overcast
3:15 PM 62.6 °F 59.0 °F 88% 30.13 in 10.0 mi SSW 10.4 mph 25.3 mph N/A   Overcast
3:35 PM 62.6 °F 59.0 °F 88% 30.13 in 10.0 mi SSW 10.4 mph 17.3 mph N/A   Overcast
3:55 PM 62.6 °F 59.0 °F 88% 30.13 in 10.0 mi SSW 10.4 mph 19.6 mph N/A   Overcast
4:15 PM 62.6 °F 59.0 °F 88% 30.12 in 10.0 mi South 10.4 mph 18.4 mph N/A   Overcast
4:55 PM 64.4 °F 59.0 °F 83% 30.10 in 10.0 mi South 12.7 mph 21.9 mph N/A   Mostly Cloudy
5:15 PM 64.4 °F 59.0 °F 83% 30.09 in 10.0 mi South 13.8 mph 23.0 mph N/A   Mostly Cloudy
5:35 PM 64.4 °F 59.0 °F 83% 30.08 in 10.0 mi South 8.1 mph 16.1 mph N/A   Scattered Clouds
5:55 PM 64.4 °F 59.0 °F 83% 30.07 in 10.0 mi South 11.5 mph - N/A   Mostly Cloudy
6:15 PM 64.4 °F 57.2 °F 77% 30.05 in 10.0 mi South 9.2 mph 18.4 mph N/A   Overcast
6:35 PM 64.4 °F 57.2 °F 77% 30.04 in 10.0 mi SSW 10.4 mph - N/A   Mostly Cloudy
6:55 PM 64.4 °F 57.2 °F 77% 30.04 in 10.0 mi South 9.2 mph - N/A   Overcast
7:15 PM 62.6 °F 57.2 °F 82% 30.04 in 10.0 mi South 8.1 mph - N/A   Overcast
7:35 PM 64.4 °F 57.2 °F 77% 30.04 in 10.0 mi SSW 13.8 mph 25.3 mph N/A   Overcast
7:55 PM 64.4 °F 57.2 °F 77% 30.05 in 10.0 mi SSW 11.5 mph 23.0 mph N/A   Overcast
8:15 PM 64.4 °F 57.2 °F 77% 30.05 in 10.0 mi SSW 10.4 mph 18.4 mph N/A   Overcast
8:35 PM 62.6 °F 57.2 °F 82% 30.05 in 10.0 mi SSW 9.2 mph 18.4 mph N/A   Overcast
8:55 PM 62.6 °F 59.0 °F 88% 30.05 in 10.0 mi SSW 6.9 mph - N/A   Overcast
9:15 PM 62.6 °F 59.0 °F 88% 30.04 in 10.0 mi South 6.9 mph - N/A   Overcast
9:35 PM 62.6 °F 59.0 °F 88% 30.04 in 10.0 mi SSW 5.8 mph - N/A   Overcast
9:55 PM 62.6 °F 59.0 °F 88% 30.05 in 10.0 mi SW 5.8 mph - N/A   Overcast
10:15 PM 62.6 °F 59.0 °F 88% 30.04 in 10.0 mi SSW 8.1 mph 18.4 mph N/A   Overcast
10:35 PM 62.6 °F 59.0 °F 88% 30.04 in 10.0 mi SSW 10.4 mph - 0.01 in   Overcast
10:55 PM 60.8 °F 59.0 °F 94% 30.05 in 7.0 mi South 10.4 mph - 0.02 in   Overcast
11:15 PM 60.8 °F 60.8 °F 100% 30.05 in 10.0 mi South 10.4 mph - 0.04 in   Overcast
11:35 PM 60.8 °F 60.8 °F 100% 30.04 in 9.0 mi South 11.5 mph 18.4 mph 0.08 in   Overcast
11:55 PM 60.8 °F 60.8 °F 100% 30.04 in 8.0 mi South 9.2 mph - 0.09 in   Overcast